Location: ???????
(55.3754°N, 39.3545°E)
Time: 12:18:06
(UTC+00:00)

SL-08 R/B - Pass Details

Date: 14 April 2026
Orbit: 667 x 728 km, 98.5° (Epoch: 10 May)

Event Time Altitude Azimuth Distance (km) Brightness Sun altitude
Rises 17:48:18 0° 17° (NNE) 3,144 6.9 -11.2°
Reaches altitude 10° 17:50:37 10° 21° (NNE) 2,226 6.1 -11.5°
Maximum altitude 17:55:28 62° 103° (ESE) 818 3.4 -12.1°
Drops below altitude 10° 18:00:19 10° 184° (S) 2,223 5.6 -12.6°
Sets 18:02:37 0° 188° (S) 3,140 6.4 -12.8°
